Rome, OR

5:59 AM MST on November 22, 2017 (GMT -0700)
Rome State

Weather History for KREO - July, 2013

Change the Weather History Date:

Saturday, July 27, 2013

  Actual Average Record
Temperature  
Mean Temperature 75 °F 73 °F  
Max Temperature 94 °F 93 °F 108 °F (1975)
Min Temperature 56 °F 53 °F 45 °F (2011)
Degree Days  
Heating Degree Days 0 0  
Month to date heating degree days 0 11  
Since 1 June heating degree days 94 136  
Since 1 July heating degree days 0 11  
Cooling Degree Days 10 8  
Month to date cooling degree days 342 187  
Year to date cooling degree days 500 259  
Since 1 June cooling degree days 478 249  
Growing Degree Days 25 (Base 50)    
Moisture  
Dew Point 40 °F    
Average Humidity 44    
Maximum Humidity 77    
Minimum Humidity 10    
Precipitation  
Precipitation 0.00 in 0.01 in 0.06 in (1941)
Month to date precipitation 0.42 0.32  
Year to date precipitation 3.04 5.94  
Sea Level Pressure  
Sea Level Pressure 29.89 in    
Wind  
Wind Speed 7 mph (West)    
Max Wind Speed 17 mph    
Max Gust Speed 22 mph    
T = Trace of Precipitation, MM = Missing Value Source: NWS Daily Summary

Daily Weather History Graph

Daily Weather History Graph

Search for Another Location

Airport or City:

Trip Planner

Search our weather history database for the weather conditions in past years. The results will help you decide how hot, cold, wet, or windy it might be!

Date:

Astronomy

Jul. 27, 2013 Rise Set
Actual Time 5:38 AM PDT 8:16 PM PDT
Civil Twilight 5:06 AM PDT 8:49 PM PDT
Nautical Twilight 4:25 AM PDT 9:29 PM PDT
Astronomical Twilight 3:39 AM PDT 10:15 PM PDT
Moon 10:57 PM PDT (7/27) 11:33 AM PDT (7/27)
Length of Visible Light 15h 42m
Length of Day
14h 37m
Waning Gibbous, 70% of the Moon is Illuminated
Jul 27
Waning Gibbous
Jul 29
Last Quarter
Aug 6
New
Aug 14
First Quarter
Aug 20
Full

Hourly Weather History & Observations

Time (PDT) Temp. Dew Point Humidity Pressure Visibility Wind Dir Wind Speed Gust Speed Precip Events Conditions
12:52 AM 70.0 °F 54.0 °F 57% 29.99 in - SSW 12.7 mph - N/A   Unknown
1:52 AM 68.0 °F 52.0 °F 56% 29.98 in - SSW 6.9 mph - N/A   Unknown
2:52 AM 66.0 °F 53.1 °F 63% 29.98 in - SW 3.5 mph - N/A   Unknown
3:52 AM 64.0 °F 51.1 °F 63% 29.99 in - SW 6.9 mph - N/A   Unknown
4:52 AM 59.0 °F 51.1 °F 75% 29.99 in - SE 8.1 mph - N/A   Unknown
5:52 AM 57.0 °F 50.0 °F 77% 30.00 in - SE 3.5 mph - N/A   Unknown
6:52 AM 66.0 °F 52.0 °F 60% 29.99 in - SSE 4.6 mph - N/A   Unknown
7:52 AM 73.9 °F 50.0 °F 43% 29.98 in - SSW 5.8 mph - N/A   Unknown
8:52 AM 78.1 °F 46.9 °F 33% 29.97 in - West 8.1 mph - N/A   Unknown
9:52 AM 81.0 °F 46.0 °F 29% 29.95 in - WSW 9.2 mph - N/A   Unknown
10:52 AM 82.9 °F 44.1 °F 25% 29.96 in - West 4.6 mph - N/A   Unknown
11:52 AM 86.0 °F 42.1 °F 21% 29.92 in - West 5.8 mph - N/A   Unknown
12:52 PM 88.0 °F 41.0 °F 19% 29.90 in - SSW 5.8 mph - N/A   Unknown
1:52 PM 90.0 °F 42.1 °F 19% 29.87 in - Calm Calm - N/A   Unknown
2:52 PM 90.0 °F 39.0 °F 17% 29.85 in - Variable 4.6 mph - N/A   Unknown
3:52 PM 93.0 °F 33.1 °F 12% 29.82 in - NNW 13.8 mph - N/A   Unknown
4:52 PM 90.0 °F 30.9 °F 12% 29.81 in - North 12.7 mph 19.6 mph N/A   Unknown
5:52 PM 90.0 °F 30.0 °F 12% 29.80 in - NW 9.2 mph - N/A   Unknown
6:52 PM 91.0 °F 28.0 °F 10% 29.77 in - NW 12.7 mph 18.4 mph N/A   Unknown
7:52 PM 86.0 °F 28.0 °F 12% 29.77 in - NW 8.1 mph - N/A   Unknown
8:52 PM 80.1 °F 24.1 °F 13% 29.78 in - North 8.1 mph - N/A   Unknown
9:52 PM 75.0 °F 21.0 °F 13% 29.79 in - NE 4.6 mph - N/A   Unknown
10:52 PM 66.9 °F 21.0 °F 17% 29.81 in - Calm Calm - N/A   Unknown
11:52 PM 69.1 °F 19.9 °F 15% 29.81 in - NNW 3.5 mph - N/A   Unknown